www.pogodaiklimat.ru

АРХИВ ПОГОДЫ в Майами

Время (UTC), дата Ветер
(напр.,м/с)
 
Видим.   Явления Облачность Т
(С)
Тd
(С)
f
(%)
Тe
(С)
Тes
(С)
Комфортность

P
(гПа)

Po
(гПа)
Тmin
(С)
Tmax
(С)
R
(мм)
SD
(см)
14:53 16.06 ЮЗ  16 км    5/5 900 м
[верхняя] 
+31.1  +22.8  61  +41  +44  опасность
перегрева 
1018.4  1017.8         
15:53 16.06 ЮЗ  16 км    8/5 900 м
[средняя верхняя] 
+31.1  +21.7  57  +39  +41  очень
душно 
1018.1  1017.8         
16:53 16.06 З  6
{10} 
16 км    8/5 960 м
[средняя верхняя] 
+31.7  +22.2  57  +41  +42  опасность
перегрева 
1017.6  1017.1         
17:53 16.06 ЮЗ  6
{10} 
16 км    8/8 1320 м
[средняя верхняя] 
+32.2  +21.7  54  +41  +42  опасность
перегрева 
1017.2  1016.8  +27.8  +33.3     
18:53 16.06 З  6
{9} 
16 км    8/8 720 м
[верхняя] 
+33.3  +22.2  52  +42  +44  опасность
перегрева 
1016.7  0.0         
19:53 16.06 З  4
{9} 
16 км    8/5 750 м
[верхняя] 
+33.3  +22.2  52  +42  +46  опасность
перегрева 
1015.9  0.0         
20:53 16.06 З  5
{9} 
16 км    5/5 1440 м
[верхняя] 
+32.8  +21.1  50  +40  +43  очень
душно 
1015.6  1015.1         
21:53 16.06 Ю  6
{11} 
16 км    8/2 1050 м
[средняя верхняя] 
+30.0  +22.2  63  +39  +40  очень
душно 
1015.3  1014.8         
22:53 16.06 Ю  16 км    5/2 1050 м
[средняя верхняя] 
+30.0  +23.3  67  +40  +41  очень
душно 
1015.7  1015.1         
23:53 16.06 З  16 км    8/5 1110 м
[верхняя] 
+30.0  +23.3  67  +40  +40  очень
душно 
1015.9  1015.4  +29.4  +33.9     
00:53 17.06 З  16 км    8/2 1200 м
[средняя верхняя] 
+29.4  +23.3  70  +40  +40  очень
душно 
1016.6  1016.1         
01:53 17.06 З  16 км    8/0 3300 м
[средняя верхняя] 
+28.9  +23.9  74  +40  +40  очень
душно 
1016.9  1016.5         
02:53 17.06 З  16 км    5/0 3300 м
[средняя верхняя] 
+28.3  +23.9  77  +39  +39  очень
душно 
1017.3  1016.8         
03:53 17.06 ЮЗ  16 км    5/0 3000 м
[средняя верхняя] 
+27.8  +23.9  79  +38  +38  очень
душно 
1017.1  1016.8         
04:53 17.06 ЮЗ  16 км    5/2 1200 м
[средняя верхняя] 
+27.8  +24.4  82  +39  +39  очень
душно 
1016.4  1016.1         
05:53 17.06 З  16 км    5/2 1200 м
[средняя верхняя] 
+27.8  +23.9  79  +38  +38  очень
душно 
1015.9  1015.4  +27.8  +30.6     
06:53 17.06 ЮЗ  16 км    5/0 3600 м
[средняя верхняя] 
+27.2  +23.9  82  +37  +37  очень
душно 
1015.1  1014.8         
07:53 17.06 ЮЗ  16 км    5/2 1050 м
[средняя верхняя] 
+27.2  +24.4  85  +38  +38  очень
душно 
1014.9  1014.4         
08:53 17.06 ЮЗ  16 км    5/2 1050 м
[средняя верхняя] 
+27.2  +23.9  82  +37  +37  очень
душно 
1014.8  1014.4         
09:53 17.06 ЮЗ  16 км    5/2 750 м
[средняя верхняя] 
+26.7  +24.4  87  +37  +37  очень
душно 
1015.2  1014.8         
10:53 17.06 ЮЗ  16 км    5/2 1050 м
[средняя верхняя] 
+26.7  +24.4  87  +37  +37  очень
душно 
1015.4  1015.1         
11:53 17.06 З  16 км    5/2 780 м
[средняя верхняя] 
+27.8  +24.4  82  +39  +39  очень
душно 
1016.3  1015.8  +26.7  +27.8     
12:53 17.06 З  16 км    5/5 630 м
[средняя верхняя] 
+29.4  +23.9  72  +40  +41  очень
душно 
1016.5  1016.1         
13:53 17.06 З  16 км    5/5 750 м
[верхняя] 
+30.6  +23.3  65  +41  +43  опасность
перегрева 
1016.4  1015.8         
14:53 17.06 ЮЗ  16 км    8/5 990 м
[средняя верхняя] 
+31.7  +22.8  59  +41  +43  опасность
перегрева 
1016.3  1015.8         
15:53 17.06 ЮЗ  16 км    8/5 1050 м
[средняя верхняя] 
+32.8  +22.2  54  +42  +44  опасность
перегрева 
1016.2  1015.8         
16:48 17.06 З  4
{10} 
16 км  гроза  8/5 1050 м
[средняя верхняя] 
+32.0  +21.0  52  +39  +43  очень
душно 
  1015.8         
16:53 17.06 СЗ  8
{15} 
16 км  гроза  8/5 1050 м
[средняя верхняя] 
+31.7  +21.1  53  +39  +40  очень
душно 
1016.6  1016.1         
17:30 17.06 З  16 км  гроза  8/2 1050 м
[средняя верхняя] 
+27.8  +21.7  69  +36  +43  очень
душно 
  1015.4         
17:50 17.06 СЗ  16 км    8/2 1050 м
[средняя верхняя] 
+28.0  +22.0  70  +36  +44  очень
душно 
  1015.8         
17:53 17.06 СЗ  16 км    8/2 1050 м
[средняя верхняя] 
+27.8  +22.2  72  +36  +44  очень
душно 
1016.2  1015.8  +27.2  +33.3     
18:53 17.06 СЗ  16 км    8/2 1050 м
[средняя верхняя] 
+29.4  +23.3  70  +40  +47  очень
душно 
1016.3  0.0         
19:53 17.06 СЗ  4
{8} 
16 км    10/2 870 м
[средняя верхняя] 
+29.4  +22.8  68  +39  +44  очень
душно 
1016.0  1015.4         
20:11 17.06 СЗ  4
{8} 
16 км  гроза  10/5 900 м
[средняя верхняя] 
+29.4  +21.7  63  +37  +39  очень
душно 
  1015.8         
20:30 17.06 З  6
{9} 
2 км  гроза с дождем  10/8 900 м
[средняя верхняя] 
+26.1  +22.2  79  +34  +34  очень
душно 
  1016.1         
20:37 17.06 нст  1
{9} 
2 км  гроза с сильным дождем, дымка  10/8 900 м
[средняя верхняя] 
+25.0  +22.8  88  +33  +35  очень
душно 
  1016.1         
20:46 17.06 СЗ  8 км  гроза со слабым дождем, дымка  10/5 1020 м
[средняя] 
+25.6  +23.3  87  +34  +35  очень
душно 
  1016.1         
20:53 17.06 СЗ  4
{8} 
16 км  гроза со слабым дождем  10/8 930 м
[средняя] 
+25.6  +22.8  85  +34  +34  очень
душно 
1016.8  1016.5      2.8   
21:26 17.06 СЗ  16 км  гроза  10/2 960 м
[средняя] 
+25.6  +21.7  79  +33  +35  очень
душно 
  1015.4         
21:53 17.06 нст  16 км  слабый дождь, гроза  10/2 960 м
[средняя] 
+25.6  +21.1  76  +32  +34  очень
душно 
1015.0  1014.8         
22:53 17.06 ЮЗ  16 км    10/2 900 м
[средняя верхняя] 
+26.7  +21.1  71  +34  +36  очень
душно 
1015.0  1014.4         
23:53 17.06 ЮЗ  16 км    8/0 5100 м
[средняя верхняя] 
+26.1  +20.6  72  +33  +33  очень
душно 
1014.1  1013.7  +25.0  +30.0  2.8   
00:53 18.06 ЮЗ  16 км    8/0 5100 м
[средняя верхняя] 
+25.6  +21.7  79  +33  +33  очень
душно 
1014.7  1014.4         
01:53 18.06 ЮЗ  16 км    5/0 7500 м
[верхняя] 
+25.6  +21.7  79  +33  +33  очень
душно 
1015.2  1014.8         
02:53 18.06 ЮЗ  16 км    5/0 7500 м
[верхняя] 
+25.6  +21.7  79  +33  +33  очень
душно 
1015.8  1015.4         
03:53 18.06 Ю  16 км    5/0 6000 м
[средняя верхняя] 
+25.0  +22.2  84  +32  +32  очень
душно 
1016.3  1015.8         
04:53 18.06 Ю  16 км    5/0 4500 м
[средняя верхняя] 
+25.6  +22.8  85  +34  +34  очень
душно 
1016.2  1015.8         
05:53 18.06 ЮЗ  16 км    5/0 4800 м
[средняя верхняя] 
+26.1  +23.3  85  +35  +35  очень
душно 
1015.8  1015.4  +25.0  +26.1     

 

Местоположение метеостанции Miami International Airport: широта 25.7906 долгота -80.3164 высота над уровнем моря 3 м.

В архиве по умолчанию представлена погода в Майами за последние 1-2 суток. Обновление информации о фактической погоде в базе происходит ежечасно! Архивные данные за месяц целиком и за предыдущие месяцы Вы можете получить, выбрав интересующий диапазон дат из раскрывающегося списка и нажав кнопку "Ввод!".

Внимание! Архив погоды МЕТАР в базе сайта в настоящее время начинается c 1 января 2013 г. Нет смысла пытаться выбрать более раннюю дату.

Внимание! Время в таблицах - всемирное. Для получения местного времени необходимо прибавить поправку, которая в Майами равна -5 ч.

Ветер - указаны скорость ветра в м/с и направление, откуда дует ветер: С - северный, СВ - северо-восточный, В - восточный, ЮВ - юго-восточный, Ю - южный, ЮЗ - юго-западный, З - западный, СЗ - северо-западный.
Видимость - горизонтальная дальность видимости в метрах или километрах. При видимости от 1 до 10 км при отсутствии осадков обычно наблюдается дымка, при ухудшении видимости до 1 км и менее - туман. В сухую погоду видимость может ухудшаться дымом, пылью или мглою.
Атмосферные явления - указаны явления, наблюдавшиеся в указанный момент времени.
Облачность - указаны через наклонную черту верхняя и нижняя облачность в баллах и высота нижней границы облаков в метрах. Внимание: облачность, как и прочие метеорологические величины в США измеряются автоматическими метеостанциями. Указанные значения в баллах носят условный характер и показывают процент времени, в течение которого, в среднем, лазерный луч высотомера отражался от облаков обратно.
T - Температура воздуха - температура, измеренная на высоте 2 м над землей.
Td - Температура точки росы - температура, при понижении до которой содержащийся в воздухе водяной пар достигнет насыщения.
f - Относительная влажность воздуха - влажноcть воздуха, измеренная на высоте 2 м над землей.
Te - Эффективная температура - температура, которую ощущает одетый по сезону человек в тени. Характеристика душности погоды. При расчете учитывается влияние влажности воздуха и скорости ветра на теплоощущения человека.
Tes - Эффективная температура на солнце - температура, которую ощущает человек, с поправкой на солнечный нагрев. Характеристика знойности погоды. Зависит от высоты солнца над горизонтом, облачности и скорости ветра. Ночью, в пасмурную погоду, а также при ветре 12 м/с и более поправка равна нулю.
P - Атмосферное давление - приведенное к уровню моря атмосферное давление.
Po - Атмосферное давление - измеренное на уровне метеостанции атмосферное давление.
Tmin - Минимальная температура - минимум температуры воздуха на высоте 2 м над землей.
Tmax - Максимальная температура - максимум температуры воздуха на высоте 2 м над землей.
R - Количество осадков - Количество выпавших осадков за 3 или 6 часов, мм.
SD - Снежный покров - Высота снежного покрова, см.